#datetime,building,power
2022-10-13T00:00:00,mnr,10.87
2022-10-13T00:01:00,mnr,10.80
2022-10-13T00:02:00,mnr,10.73
2022-10-13T00:03:00,mnr,10.32
2022-10-13T00:04:00,mnr,11.30
2022-10-13T00:05:00,mnr,10.31
2022-10-13T00:06:00,mnr,10.18
2022-10-13T00:07:00,mnr,10.28
2022-10-13T00:08:00,mnr,10.17
2022-10-13T00:09:00,mnr,10.26
2022-10-13T00:10:00,mnr,10.28
2022-10-13T00:11:00,mnr,10.71
2022-10-13T00:12:00,mnr,10.63
2022-10-13T00:13:00,mnr,10.50
2022-10-13T00:14:00,mnr,10.50
2022-10-13T00:15:00,mnr,10.60
2022-10-13T00:16:00,mnr,10.46
2022-10-13T00:17:00,mnr,10.40
2022-10-13T00:18:00,mnr,10.39
2022-10-13T00:19:00,mnr,10.54
2022-10-13T00:20:00,mnr,10.18
2022-10-13T00:21:00,mnr,10.37
2022-10-13T00:22:00,mnr,10.23
2022-10-13T00:23:00,mnr,9.77
2022-10-13T00:24:00,mnr,9.92
2022-10-13T00:25:00,mnr,10.15
2022-10-13T00:26:00,mnr,9.62
2022-10-13T00:27:00,mnr,10.03
2022-10-13T00:28:00,mnr,9.40
2022-10-13T00:29:00,mnr,9.37
2022-10-13T00:30:00,mnr,9.09
2022-10-13T00:31:00,mnr,9.30
2022-10-13T00:32:00,mnr,9.09
2022-10-13T00:33:00,mnr,9.07
2022-10-13T00:34:00,mnr,9.22
2022-10-13T00:35:00,mnr,9.09
2022-10-13T00:36:00,mnr,9.33
2022-10-13T00:37:00,mnr,9.33
2022-10-13T00:38:00,mnr,9.27
2022-10-13T00:39:00,mnr,9.26
2022-10-13T00:40:00,mnr,9.52
2022-10-13T00:41:00,mnr,9.18
2022-10-13T00:42:00,mnr,9.06
2022-10-13T00:43:00,mnr,9.37
2022-10-13T00:44:00,mnr,9.02
2022-10-13T00:45:00,mnr,9.85
2022-10-13T00:46:00,mnr,9.19
2022-10-13T00:47:00,mnr,9.18
2022-10-13T00:48:00,mnr,9.26
2022-10-13T00:49:00,mnr,9.09
2022-10-13T00:50:00,mnr,9.22
2022-10-13T00:51:00,mnr,9.29
2022-10-13T00:52:00,mnr,9.10
2022-10-13T00:53:00,mnr,9.30
2022-10-13T00:54:00,mnr,9.14
2022-10-13T00:55:00,mnr,9.12
2022-10-13T00:56:00,mnr,9.68
2022-10-13T00:57:00,mnr,9.14
2022-10-13T00:58:00,mnr,9.31
2022-10-13T00:59:00,mnr,9.23
2022-10-13T01:00:00,mnr,8.71
2022-10-13T01:01:00,mnr,8.60
2022-10-13T01:02:00,mnr,11.37
2022-10-13T01:03:00,mnr,11.13
2022-10-13T01:04:00,mnr,10.58
2022-10-13T01:05:00,mnr,11.28
2022-10-13T01:06:00,mnr,10.70
2022-10-13T01:07:00,mnr,11.50
2022-10-13T01:08:00,mnr,10.43
2022-10-13T01:09:00,mnr,10.25
2022-10-13T01:10:00,mnr,10.32
2022-10-13T01:11:00,mnr,10.30
2022-10-13T01:12:00,mnr,9.96
2022-10-13T01:13:00,mnr,9.84
2022-10-13T01:14:00,mnr,9.80
2022-10-13T01:15:00,mnr,10.45
2022-10-13T01:16:00,mnr,9.88
2022-10-13T01:17:00,mnr,9.99
2022-10-13T01:18:00,mnr,10.52
2022-10-13T01:19:00,mnr,10.59
2022-10-13T01:20:00,mnr,9.95
2022-10-13T01:21:00,mnr,9.49
2022-10-13T01:22:00,mnr,9.80
2022-10-13T01:23:00,mnr,9.38
2022-10-13T01:24:00,mnr,9.27
2022-10-13T01:25:00,mnr,8.83
2022-10-13T01:26:00,mnr,9.22
2022-10-13T01:27:00,mnr,9.28
2022-10-13T01:28:00,mnr,9.17
2022-10-13T01:29:00,mnr,9.34
2022-10-13T01:30:00,mnr,9.29
2022-10-13T01:31:00,mnr,9.33
2022-10-13T01:32:00,mnr,9.29
2022-10-13T01:33:00,mnr,8.87
2022-10-13T01:34:00,mnr,8.83
2022-10-13T01:35:00,mnr,8.79
2022-10-13T01:36:00,mnr,8.63
2022-10-13T01:37:00,mnr,8.65
2022-10-13T01:38:00,mnr,8.71
2022-10-13T01:39:00,mnr,8.61
2022-10-13T01:40:00,mnr,8.64
2022-10-13T01:41:00,mnr,8.56
2022-10-13T01:42:00,mnr,8.54
2022-10-13T01:43:00,mnr,8.51
2022-10-13T01:44:00,mnr,9.39
2022-10-13T01:45:00,mnr,10.08
2022-10-13T01:46:00,mnr,9.09
2022-10-13T01:47:00,mnr,8.83
2022-10-13T01:48:00,mnr,8.92
2022-10-13T01:49:00,mnr,8.45
2022-10-13T01:50:00,mnr,9.34
2022-10-13T01:51:00,mnr,8.18
2022-10-13T01:52:00,mnr,8.64
2022-10-13T01:53:00,mnr,8.23
2022-10-13T01:54:00,mnr,8.49
2022-10-13T01:55:00,mnr,8.34
2022-10-13T01:56:00,mnr,8.11
2022-10-13T01:57:00,mnr,8.12
2022-10-13T01:58:00,mnr,8.19
2022-10-13T01:59:00,mnr,8.43
2022-10-13T02:00:00,mnr,8.14
2022-10-13T02:01:00,mnr,9.09
2022-10-13T02:02:00,mnr,8.17
2022-10-13T02:03:00,mnr,8.18
2022-10-13T02:04:00,mnr,8.14
2022-10-13T02:05:00,mnr,8.27
2022-10-13T02:06:00,mnr,8.12
2022-10-13T02:07:00,mnr,8.15
2022-10-13T02:08:00,mnr,8.13
2022-10-13T02:09:00,mnr,8.12
2022-10-13T02:10:00,mnr,8.11
2022-10-13T02:11:00,mnr,8.53
2022-10-13T02:12:00,mnr,9.37
2022-10-13T02:13:00,mnr,8.30
2022-10-13T02:14:00,mnr,8.87
2022-10-13T02:15:00,mnr,8.28
2022-10-13T02:16:00,mnr,8.21
2022-10-13T02:17:00,mnr,8.73
2022-10-13T02:18:00,mnr,8.21
2022-10-13T02:19:00,mnr,8.42
2022-10-13T02:20:00,mnr,8.17
2022-10-13T02:21:00,mnr,8.12
2022-10-13T02:22:00,mnr,8.22
2022-10-13T02:23:00,mnr,8.49
2022-10-13T02:24:00,mnr,8.19
2022-10-13T02:25:00,mnr,8.25
2022-10-13T02:26:00,mnr,8.34
2022-10-13T02:27:00,mnr,8.22
2022-10-13T02:28:00,mnr,8.22
2022-10-13T02:29:00,mnr,8.23
2022-10-13T02:30:00,mnr,8.40
2022-10-13T02:31:00,mnr,8.39
2022-10-13T02:32:00,mnr,7.82
2022-10-13T02:33:00,mnr,7.87
2022-10-13T02:34:00,mnr,7.91
2022-10-13T02:35:00,mnr,7.85
2022-10-13T02:36:00,mnr,7.71
2022-10-13T02:37:00,mnr,8.39
2022-10-13T02:38:00,mnr,7.77
2022-10-13T02:39:00,mnr,7.74
2022-10-13T02:40:00,mnr,7.78
2022-10-13T02:41:00,mnr,7.77
2022-10-13T02:42:00,mnr,7.76
2022-10-13T02:43:00,mnr,9.12
2022-10-13T02:44:00,mnr,7.88
2022-10-13T02:45:00,mnr,7.92
2022-10-13T02:46:00,mnr,7.81
2022-10-13T02:47:00,mnr,7.85
2022-10-13T02:48:00,mnr,7.91
2022-10-13T02:49:00,mnr,8.38
2022-10-13T02:50:00,mnr,7.67
2022-10-13T02:51:00,mnr,7.68
2022-10-13T02:52:00,mnr,7.65
2022-10-13T02:53:00,mnr,7.78
2022-10-13T02:54:00,mnr,7.66
2022-10-13T02:55:00,mnr,8.25
2022-10-13T02:56:00,mnr,7.71
2022-10-13T02:57:00,mnr,7.71
2022-10-13T02:58:00,mnr,7.72
2022-10-13T02:59:00,mnr,7.73
2022-10-13T03:00:00,mnr,7.80
2022-10-13T03:01:00,mnr,7.79
2022-10-13T03:02:00,mnr,7.76
2022-10-13T03:03:00,mnr,7.79
2022-10-13T03:04:00,mnr,7.83
2022-10-13T03:05:00,mnr,7.77
2022-10-13T03:06:00,mnr,8.14
2022-10-13T03:07:00,mnr,8.43
2022-10-13T03:08:00,mnr,7.68
2022-10-13T03:09:00,mnr,7.65
2022-10-13T03:10:00,mnr,7.80
2022-10-13T03:11:00,mnr,7.76
2022-10-13T03:12:00,mnr,8.33
2022-10-13T03:13:00,mnr,7.71
2022-10-13T03:14:00,mnr,7.70
2022-10-13T03:15:00,mnr,7.54
2022-10-13T03:16:00,mnr,8.44
2022-10-13T03:17:00,mnr,8.08
2022-10-13T03:18:00,mnr,8.03
2022-10-13T03:19:00,mnr,8.67
2022-10-13T03:20:00,mnr,8.09
2022-10-13T03:21:00,mnr,8.08
2022-10-13T03:22:00,mnr,8.11
2022-10-13T03:23:00,mnr,8.15
2022-10-13T03:24:00,mnr,8.05
2022-10-13T03:25:00,mnr,8.08
2022-10-13T03:26:00,mnr,8.14
2022-10-13T03:27:00,mnr,8.14
2022-10-13T03:28:00,mnr,8.90
2022-10-13T03:29:00,mnr,8.13
2022-10-13T03:30:00,mnr,8.17
2022-10-13T03:31:00,mnr,8.18
2022-10-13T03:32:00,mnr,8.27
2022-10-13T03:33:00,mnr,8.23
2022-10-13T03:34:00,mnr,8.15
2022-10-13T03:35:00,mnr,8.11
2022-10-13T03:36:00,mnr,8.02
2022-10-13T03:37:00,mnr,8.25
2022-10-13T03:38:00,mnr,8.33
2022-10-13T03:39:00,mnr,8.25
2022-10-13T03:40:00,mnr,8.16
2022-10-13T03:41:00,mnr,8.72
2022-10-13T03:42:00,mnr,8.30
2022-10-13T03:43:00,mnr,8.21
2022-10-13T03:44:00,mnr,8.29
2022-10-13T03:45:00,mnr,8.36
2022-10-13T03:46:00,mnr,8.26
2022-10-13T03:47:00,mnr,8.24
2022-10-13T03:48:00,mnr,8.16
2022-10-13T03:49:00,mnr,8.14
2022-10-13T03:50:00,mnr,8.62
2022-10-13T03:51:00,mnr,8.13
2022-10-13T03:52:00,mnr,8.22
2022-10-13T03:53:00,mnr,8.17
2022-10-13T03:54:00,mnr,8.09
2022-10-13T03:55:00,mnr,8.12
2022-10-13T03:56:00,mnr,8.00
2022-10-13T03:57:00,mnr,8.02
2022-10-13T03:58:00,mnr,8.01
2022-10-13T03:59:00,mnr,8.53
2022-10-13T04:00:00,mnr,7.93
2022-10-13T04:01:00,mnr,8.07
2022-10-13T04:02:00,mnr,8.10
2022-10-13T04:03:00,mnr,8.19
2022-10-13T04:04:00,mnr,7.65
2022-10-13T04:05:00,mnr,7.61
2022-10-13T04:06:00,mnr,8.01
2022-10-13T04:07:00,mnr,7.62
2022-10-13T04:08:00,mnr,7.62
2022-10-13T04:09:00,mnr,7.85
2022-10-13T04:10:00,mnr,7.88
2022-10-13T04:11:00,mnr,8.06
2022-10-13T04:12:00,mnr,8.80
2022-10-13T04:13:00,mnr,7.83
2022-10-13T04:14:00,mnr,7.84
2022-10-13T04:15:00,mnr,7.87
2022-10-13T04:16:00,mnr,7.82
2022-10-13T04:17:00,mnr,7.79
2022-10-13T04:18:00,mnr,7.81
2022-10-13T04:19:00,mnr,7.83
2022-10-13T04:20:00,mnr,7.76
2022-10-13T04:21:00,mnr,7.70
2022-10-13T04:22:00,mnr,8.29
2022-10-13T04:23:00,mnr,7.74
2022-10-13T04:24:00,mnr,7.67
2022-10-13T04:25:00,mnr,8.30
2022-10-13T04:26:00,mnr,7.70
2022-10-13T04:27:00,mnr,7.63
2022-10-13T04:28:00,mnr,7.67
2022-10-13T04:29:00,mnr,7.76
2022-10-13T04:30:00,mnr,7.66
2022-10-13T04:31:00,mnr,8.07
2022-10-13T04:32:00,mnr,7.73
2022-10-13T04:33:00,mnr,7.68
2022-10-13T04:34:00,mnr,7.64
2022-10-13T04:35:00,mnr,7.58
2022-10-13T04:36:00,mnr,7.60
2022-10-13T04:37:00,mnr,7.65
2022-10-13T04:38:00,mnr,7.74
2022-10-13T04:39:00,mnr,7.78
2022-10-13T04:40:00,mnr,7.80
2022-10-13T04:41:00,mnr,8.47
2022-10-13T04:42:00,mnr,8.05
2022-10-13T04:43:00,mnr,7.76
2022-10-13T04:44:00,mnr,7.74
2022-10-13T04:45:00,mnr,7.80
2022-10-13T04:46:00,mnr,7.86
2022-10-13T04:47:00,mnr,7.70
2022-10-13T04:48:00,mnr,8.31
2022-10-13T04:49:00,mnr,8.27
2022-10-13T04:50:00,mnr,8.10
2022-10-13T04:51:00,mnr,8.07
2022-10-13T04:52:00,mnr,8.10
2022-10-13T04:53:00,mnr,8.18
2022-10-13T04:54:00,mnr,8.13
2022-10-13T04:55:00,mnr,8.31
2022-10-13T04:56:00,mnr,8.18
2022-10-13T04:57:00,mnr,8.31
2022-10-13T04:58:00,mnr,8.47
2022-10-13T04:59:00,mnr,8.46
2022-10-13T05:00:00,mnr,8.25
2022-10-13T05:01:00,mnr,8.72
2022-10-13T05:02:00,mnr,10.43
2022-10-13T05:03:00,mnr,11.28
2022-10-13T05:04:00,mnr,12.27
2022-10-13T05:05:00,mnr,11.72
2022-10-13T05:06:00,mnr,11.80
2022-10-13T05:07:00,mnr,11.95
2022-10-13T05:08:00,mnr,11.89
2022-10-13T05:09:00,mnr,11.86
2022-10-13T05:10:00,mnr,12.05
2022-10-13T05:11:00,mnr,12.17
2022-10-13T05:12:00,mnr,12.21
2022-10-13T05:13:00,mnr,12.30
2022-10-13T05:14:00,mnr,12.33
2022-10-13T05:15:00,mnr,12.40
2022-10-13T05:16:00,mnr,12.34
2022-10-13T05:17:00,mnr,12.27
2022-10-13T05:18:00,mnr,12.27
2022-10-13T05:19:00,mnr,12.23
2022-10-13T05:20:00,mnr,12.25
2022-10-13T05:21:00,mnr,12.99
2022-10-13T05:22:00,mnr,12.01
2022-10-13T05:23:00,mnr,11.72
2022-10-13T05:24:00,mnr,11.71
2022-10-13T05:25:00,mnr,11.64
2022-10-13T05:26:00,mnr,11.57
2022-10-13T05:27:00,mnr,11.53
2022-10-13T05:28:00,mnr,11.55
2022-10-13T05:29:00,mnr,11.49
2022-10-13T05:30:00,mnr,11.40
2022-10-13T05:31:00,mnr,11.69
2022-10-13T05:32:00,mnr,11.46
2022-10-13T05:33:00,mnr,11.56
2022-10-13T05:34:00,mnr,12.11
2022-10-13T05:35:00,mnr,11.26
2022-10-13T05:36:00,mnr,10.97
2022-10-13T05:37:00,mnr,10.99
2022-10-13T05:38:00,mnr,11.01
2022-10-13T05:39:00,mnr,11.64
2022-10-13T05:40:00,mnr,11.08
2022-10-13T05:41:00,mnr,11.01
2022-10-13T05:42:00,mnr,11.02
2022-10-13T05:43:00,mnr,11.07
2022-10-13T05:44:00,mnr,10.94
2022-10-13T05:45:00,mnr,10.92
2022-10-13T05:46:00,mnr,10.95
2022-10-13T05:47:00,mnr,10.97
2022-10-13T05:48:00,mnr,11.03
2022-10-13T05:49:00,mnr,11.20
2022-10-13T05:50:00,mnr,11.14
2022-10-13T05:51:00,mnr,11.11
2022-10-13T05:52:00,mnr,11.66
2022-10-13T05:53:00,mnr,11.02
2022-10-13T05:54:00,mnr,11.06
2022-10-13T05:55:00,mnr,11.22
2022-10-13T05:56:00,mnr,11.14
2022-10-13T05:57:00,mnr,10.97
2022-10-13T05:58:00,mnr,11.33
2022-10-13T05:59:00,mnr,10.94
2022-10-13T06:00:00,mnr,11.19
2022-10-13T06:01:00,mnr,11.00
2022-10-13T06:02:00,mnr,11.09
2022-10-13T06:03:00,mnr,11.11
2022-10-13T06:04:00,mnr,11.16
2022-10-13T06:05:00,mnr,11.27
2022-10-13T06:06:00,mnr,11.23
2022-10-13T06:07:00,mnr,11.23
2022-10-13T06:08:00,mnr,11.13
2022-10-13T06:09:00,mnr,11.14
2022-10-13T06:10:00,mnr,12.11
2022-10-13T06:11:00,mnr,12.84
2022-10-13T06:12:00,mnr,13.27
2022-10-13T06:13:00,mnr,12.77
2022-10-13T06:14:00,mnr,12.82
2022-10-13T06:15:00,mnr,13.40
2022-10-13T06:16:00,mnr,12.88
2022-10-13T06:17:00,mnr,12.85
2022-10-13T06:18:00,mnr,13.34
2022-10-13T06:19:00,mnr,12.96
2022-10-13T06:20:00,mnr,13.38
2022-10-13T06:21:00,mnr,13.97
2022-10-13T06:22:00,mnr,13.29
2022-10-13T06:23:00,mnr,13.33
2022-10-13T06:24:00,mnr,13.20
2022-10-13T06:25:00,mnr,13.16
2022-10-13T06:26:00,mnr,13.16
2022-10-13T06:27:00,mnr,13.31
2022-10-13T06:28:00,mnr,14.35
2022-10-13T06:29:00,mnr,14.19
2022-10-13T06:30:00,mnr,14.24
2022-10-13T06:31:00,mnr,14.20
2022-10-13T06:32:00,mnr,14.30
2022-10-13T06:33:00,mnr,14.14
2022-10-13T06:34:00,mnr,14.14
2022-10-13T06:35:00,mnr,14.67
2022-10-13T06:36:00,mnr,14.84
2022-10-13T06:37:00,mnr,14.89
2022-10-13T06:38:00,mnr,14.77
2022-10-13T06:39:00,mnr,14.89
2022-10-13T06:40:00,mnr,14.86
2022-10-13T06:41:00,mnr,15.43
2022-10-13T06:42:00,mnr,15.18
2022-10-13T06:43:00,mnr,15.14
2022-10-13T06:44:00,mnr,14.94
2022-10-13T06:45:00,mnr,15.49
2022-10-13T06:46:00,mnr,14.91
2022-10-13T06:47:00,mnr,15.56
2022-10-13T06:48:00,mnr,14.96
2022-10-13T06:49:00,mnr,14.89
2022-10-13T06:50:00,mnr,14.98
2022-10-13T06:51:00,mnr,14.90
2022-10-13T06:52:00,mnr,14.94
2022-10-13T06:53:00,mnr,14.82
2022-10-13T06:54:00,mnr,14.60
2022-10-13T06:55:00,mnr,14.83
2022-10-13T06:56:00,mnr,14.79
2022-10-13T06:57:00,mnr,14.86
2022-10-13T06:58:00,mnr,15.30
2022-10-13T06:59:00,mnr,14.94
2022-10-13T07:00:00,mnr,14.92
2022-10-13T07:01:00,mnr,14.87
2022-10-13T07:02:00,mnr,15.12
2022-10-13T07:03:00,mnr,14.90
2022-10-13T07:04:00,mnr,15.01
2022-10-13T07:05:00,mnr,10.93
2022-10-13T07:06:00,mnr,15.04
2022-10-13T07:07:00,mnr,14.97
2022-10-13T07:08:00,mnr,15.16
2022-10-13T07:09:00,mnr,15.02
2022-10-13T07:10:00,mnr,14.98
2022-10-13T07:11:00,mnr,14.82
2022-10-13T07:12:00,mnr,15.25
2022-10-13T07:13:00,mnr,14.64
2022-10-13T07:14:00,mnr,14.69
2022-10-13T07:15:00,mnr,14.64
2022-10-13T07:16:00,mnr,14.56
2022-10-13T07:17:00,mnr,14.48
2022-10-13T07:18:00,mnr,14.46
2022-10-13T07:19:00,mnr,16.41
2022-10-13T07:20:00,mnr,16.87
2022-10-13T07:21:00,mnr,15.27
2022-10-13T07:22:00,mnr,15.64
2022-10-13T07:23:00,mnr,14.80
2022-10-13T07:24:00,mnr,14.99
2022-10-13T07:25:00,mnr,14.50
2022-10-13T07:26:00,mnr,14.73
2022-10-13T07:27:00,mnr,14.99
2022-10-13T07:28:00,mnr,14.59
2022-10-13T07:29:00,mnr,14.54
2022-10-13T07:30:00,mnr,14.57
2022-10-13T07:31:00,mnr,14.53
2022-10-13T07:32:00,mnr,14.61
2022-10-13T07:33:00,mnr,14.81
2022-10-13T07:34:00,mnr,15.24
2022-10-13T07:35:00,mnr,16.29
2022-10-13T07:36:00,mnr,14.76
2022-10-13T07:37:00,mnr,15.65
2022-10-13T07:38:00,mnr,15.17
2022-10-13T07:39:00,mnr,14.02
2022-10-13T07:40:00,mnr,14.08
2022-10-13T07:41:00,mnr,14.26
2022-10-13T07:42:00,mnr,14.20
2022-10-13T07:43:00,mnr,14.14
2022-10-13T07:44:00,mnr,16.44
2022-10-13T07:45:00,mnr,16.15
2022-10-13T07:46:00,mnr,26.69
2022-10-13T07:47:00,mnr,15.84
2022-10-13T07:48:00,mnr,15.92
2022-10-13T07:49:00,mnr,15.92
2022-10-13T07:50:00,mnr,17.36
2022-10-13T07:51:00,mnr,16.12
2022-10-13T07:52:00,mnr,12.18
2022-10-13T07:53:00,mnr,16.16
2022-10-13T07:54:00,mnr,16.14
2022-10-13T07:55:00,mnr,16.21
2022-10-13T07:56:00,mnr,16.20
2022-10-13T07:57:00,mnr,16.73
2022-10-13T07:58:00,mnr,18.15
2022-10-13T07:59:00,mnr,17.49
2022-10-13T08:00:00,mnr,17.51
2022-10-13T08:01:00,mnr,17.39
2022-10-13T08:02:00,mnr,17.68
2022-10-13T08:03:00,mnr,21.23
2022-10-13T08:04:00,mnr,18.08
2022-10-13T08:05:00,mnr,18.27
2022-10-13T08:06:00,mnr,17.65
2022-10-13T08:07:00,mnr,17.48
2022-10-13T08:08:00,mnr,17.69
2022-10-13T08:09:00,mnr,17.44
2022-10-13T08:10:00,mnr,17.30
2022-10-13T08:11:00,mnr,17.41
2022-10-13T08:12:00,mnr,17.57
2022-10-13T08:13:00,mnr,17.39
2022-10-13T08:14:00,mnr,18.14
2022-10-13T08:15:00,mnr,17.40
2022-10-13T08:16:00,mnr,17.54
2022-10-13T08:17:00,mnr,18.25
2022-10-13T08:18:00,mnr,18.04
2022-10-13T08:19:00,mnr,17.31
2022-10-13T08:20:00,mnr,17.46
2022-10-13T08:21:00,mnr,17.30
2022-10-13T08:22:00,mnr,17.27
2022-10-13T08:23:00,mnr,17.29
2022-10-13T08:24:00,mnr,17.86
2022-10-13T08:25:00,mnr,17.47
2022-10-13T08:26:00,mnr,17.46
2022-10-13T08:27:00,mnr,16.87
2022-10-13T08:28:00,mnr,17.70
2022-10-13T08:29:00,mnr,16.91
2022-10-13T08:30:00,mnr,16.96
2022-10-13T08:31:00,mnr,16.90
2022-10-13T08:32:00,mnr,16.91
2022-10-13T08:33:00,mnr,17.02
2022-10-13T08:34:00,mnr,18.93
2022-10-13T08:35:00,mnr,18.38
2022-10-13T08:36:00,mnr,19.25
2022-10-13T08:37:00,mnr,17.98
2022-10-13T08:38:00,mnr,18.89
2022-10-13T08:39:00,mnr,19.06
2022-10-13T08:40:00,mnr,19.65
2022-10-13T08:41:00,mnr,18.54
2022-10-13T08:42:00,mnr,19.41
2022-10-13T08:43:00,mnr,18.69
2022-10-13T08:44:00,mnr,18.83
2022-10-13T08:45:00,mnr,20.50
2022-10-13T08:46:00,mnr,19.56
2022-10-13T08:47:00,mnr,20.45
2022-10-13T08:48:00,mnr,19.87
2022-10-13T08:49:00,mnr,19.82
2022-10-13T08:50:00,mnr,19.91
2022-10-13T08:51:00,mnr,19.77
2022-10-13T08:52:00,mnr,20.06
2022-10-13T08:53:00,mnr,18.94
2022-10-13T08:54:00,mnr,19.02
2022-10-13T08:55:00,mnr,18.96
2022-10-13T08:56:00,mnr,18.93
2022-10-13T08:57:00,mnr,19.11
2022-10-13T08:58:00,mnr,18.76
2022-10-13T08:59:00,mnr,18.72
2022-10-13T09:00:00,mnr,18.46
2022-10-13T09:01:00,mnr,18.26
2022-10-13T09:02:00,mnr,18.99
2022-10-13T09:03:00,mnr,18.52
2022-10-13T09:04:00,mnr,18.37
2022-10-13T09:05:00,mnr,18.26
2022-10-13T09:06:00,mnr,19.48
2022-10-13T09:07:00,mnr,17.89
2022-10-13T09:08:00,mnr,20.35
2022-10-13T09:09:00,mnr,19.46
2022-10-13T09:10:00,mnr,20.12
2022-10-13T09:11:00,mnr,19.76
2022-10-13T09:12:00,mnr,21.68
2022-10-13T09:13:00,mnr,20.28
2022-10-13T09:14:00,mnr,21.17
2022-10-13T09:15:00,mnr,21.01
2022-10-13T09:16:00,mnr,21.02
2022-10-13T09:17:00,mnr,20.80
2022-10-13T09:18:00,mnr,19.45
2022-10-13T09:19:00,mnr,18.74
2022-10-13T09:20:00,mnr,16.00
2022-10-13T09:21:00,mnr,15.96
2022-10-13T09:22:00,mnr,18.93
2022-10-13T09:23:00,mnr,18.73
2022-10-13T09:24:00,mnr,19.03
2022-10-13T09:25:00,mnr,19.37
2022-10-13T09:26:00,mnr,20.60
2022-10-13T09:27:00,mnr,19.90
2022-10-13T09:28:00,mnr,15.99
2022-10-13T09:29:00,mnr,19.83
2022-10-13T09:30:00,mnr,20.40
2022-10-13T09:31:00,mnr,22.42
2022-10-13T09:32:00,mnr,21.25
2022-10-13T09:33:00,mnr,21.82
2022-10-13T09:34:00,mnr,20.38
2022-10-13T09:35:00,mnr,20.72
2022-10-13T09:36:00,mnr,20.98
2022-10-13T09:37:00,mnr,20.64
2022-10-13T09:38:00,mnr,20.44
2022-10-13T09:39:00,mnr,21.32
2022-10-13T09:40:00,mnr,20.66
2022-10-13T09:41:00,mnr,20.79
2022-10-13T09:42:00,mnr,20.39
2022-10-13T09:43:00,mnr,20.44
2022-10-13T09:44:00,mnr,20.62
2022-10-13T09:45:00,mnr,20.38
2022-10-13T09:46:00,mnr,20.45
2022-10-13T09:47:00,mnr,20.33
2022-10-13T09:48:00,mnr,20.19
2022-10-13T09:49:00,mnr,20.03
2022-10-13T09:50:00,mnr,20.11
2022-10-13T09:51:00,mnr,21.81
2022-10-13T09:52:00,mnr,21.70
2022-10-13T09:53:00,mnr,21.47
2022-10-13T09:54:00,mnr,20.45
2022-10-13T09:55:00,mnr,20.43
2022-10-13T09:56:00,mnr,20.94
2022-10-13T09:57:00,mnr,20.48
2022-10-13T09:58:00,mnr,20.63
2022-10-13T09:59:00,mnr,20.87
2022-10-13T10:00:00,mnr,20.42
2022-10-13T10:01:00,mnr,21.11
2022-10-13T10:02:00,mnr,20.50
2022-10-13T10:03:00,mnr,20.45
2022-10-13T10:04:00,mnr,20.48
2022-10-13T10:05:00,mnr,20.74
2022-10-13T10:06:00,mnr,20.53
2022-10-13T10:07:00,mnr,21.03
2022-10-13T10:08:00,mnr,20.44
2022-10-13T10:09:00,mnr,20.65
2022-10-13T10:10:00,mnr,20.58
2022-10-13T10:11:00,mnr,20.50
2022-10-13T10:12:00,mnr,21.33
2022-10-13T10:13:00,mnr,20.86
2022-10-13T10:14:00,mnr,20.76
2022-10-13T10:15:00,mnr,20.89
2022-10-13T10:16:00,mnr,20.89
2022-10-13T10:17:00,mnr,22.72
2022-10-13T10:18:00,mnr,20.68
2022-10-13T10:19:00,mnr,20.68
2022-10-13T10:20:00,mnr,20.87
2022-10-13T10:21:00,mnr,22.19
2022-10-13T10:22:00,mnr,21.93
2022-10-13T10:23:00,mnr,22.12
2022-10-13T10:24:00,mnr,20.82
2022-10-13T10:25:00,mnr,21.91
2022-10-13T10:26:00,mnr,20.86
2022-10-13T10:27:00,mnr,21.61
2022-10-13T10:28:00,mnr,21.00
2022-10-13T10:29:00,mnr,21.65
2022-10-13T10:30:00,mnr,22.34
2022-10-13T10:31:00,mnr,21.03
2022-10-13T10:32:00,mnr,22.43
2022-10-13T10:33:00,mnr,20.96
2022-10-13T10:34:00,mnr,21.14
2022-10-13T10:35:00,mnr,20.95
2022-10-13T10:36:00,mnr,21.40
2022-10-13T10:37:00,mnr,21.76
2022-10-13T10:38:00,mnr,21.19
2022-10-13T10:39:00,mnr,21.35
2022-10-13T10:40:00,mnr,21.03
2022-10-13T10:41:00,mnr,21.88
2022-10-13T10:42:00,mnr,21.03
2022-10-13T10:43:00,mnr,21.17
2022-10-13T10:44:00,mnr,21.53
2022-10-13T10:45:00,mnr,20.85
2022-10-13T10:46:00,mnr,20.61
2022-10-13T10:47:00,mnr,21.30
2022-10-13T10:48:00,mnr,20.18
2022-10-13T10:49:00,mnr,19.74
2022-10-13T10:50:00,mnr,18.09
2022-10-13T10:51:00,mnr,18.19
2022-10-13T10:52:00,mnr,18.52
2022-10-13T10:53:00,mnr,18.81
2022-10-13T10:54:00,mnr,18.10
2022-10-13T10:55:00,mnr,17.42
2022-10-13T10:56:00,mnr,17.74
2022-10-13T10:57:00,mnr,17.50
2022-10-13T10:58:00,mnr,28.28
2022-10-13T10:59:00,mnr,18.14
2022-10-13T11:00:00,mnr,17.54
2022-10-13T11:01:00,mnr,17.57
2022-10-13T11:02:00,mnr,17.64
2022-10-13T11:03:00,mnr,17.81
2022-10-13T11:04:00,mnr,17.62
2022-10-13T11:05:00,mnr,17.81
2022-10-13T11:06:00,mnr,17.56
2022-10-13T11:07:00,mnr,17.93
2022-10-13T11:08:00,mnr,17.55
2022-10-13T11:09:00,mnr,17.99
2022-10-13T11:10:00,mnr,17.22
2022-10-13T11:11:00,mnr,17.29
2022-10-13T11:12:00,mnr,17.38
2022-10-13T11:13:00,mnr,17.21
2022-10-13T11:14:00,mnr,17.49
2022-10-13T11:15:00,mnr,17.34
2022-10-13T11:16:00,mnr,17.19
2022-10-13T11:17:00,mnr,17.32
2022-10-13T11:18:00,mnr,17.44
2022-10-13T11:19:00,mnr,17.15
2022-10-13T11:20:00,mnr,17.11
2022-10-13T11:21:00,mnr,17.23
2022-10-13T11:22:00,mnr,17.14
2022-10-13T11:23:00,mnr,17.06
2022-10-13T11:24:00,mnr,17.40
2022-10-13T11:25:00,mnr,17.04
2022-10-13T11:26:00,mnr,17.53
2022-10-13T11:27:00,mnr,17.12
2022-10-13T11:28:00,mnr,16.86
2022-10-13T11:29:00,mnr,16.45
2022-10-13T11:30:00,mnr,17.11
2022-10-13T11:31:00,mnr,17.07
2022-10-13T11:32:00,mnr,16.20
2022-10-13T11:33:00,mnr,16.80
2022-10-13T11:34:00,mnr,16.40
2022-10-13T11:35:00,mnr,16.91
2022-10-13T11:36:00,mnr,17.46
2022-10-13T11:37:00,mnr,16.11
2022-10-13T11:38:00,mnr,16.97
2022-10-13T11:39:00,mnr,18.58
2022-10-13T11:40:00,mnr,18.53
2022-10-13T11:41:00,mnr,16.82
2022-10-13T11:42:00,mnr,17.23
2022-10-13T11:43:00,mnr,16.88
2022-10-13T11:44:00,mnr,17.01
2022-10-13T11:45:00,mnr,16.81
2022-10-13T11:46:00,mnr,17.54
2022-10-13T11:47:00,mnr,18.48
2022-10-13T11:48:00,mnr,17.56
2022-10-13T11:49:00,mnr,16.78
2022-10-13T11:50:00,mnr,18.38
2022-10-13T11:51:00,mnr,13.03
2022-10-13T11:52:00,mnr,17.03
2022-10-13T11:53:00,mnr,17.44
2022-10-13T11:54:00,mnr,17.11
2022-10-13T11:55:00,mnr,17.01
2022-10-13T11:56:00,mnr,16.96
2022-10-13T11:57:00,mnr,17.00
2022-10-13T11:58:00,mnr,17.82
2022-10-13T11:59:00,mnr,17.61
2022-10-13T12:00:00,mnr,16.96
2022-10-13T12:01:00,mnr,17.05
2022-10-13T12:02:00,mnr,17.44
2022-10-13T12:03:00,mnr,17.47
2022-10-13T12:04:00,mnr,17.41
2022-10-13T12:05:00,mnr,17.63
2022-10-13T12:06:00,mnr,17.42
2022-10-13T12:07:00,mnr,17.08
2022-10-13T12:08:00,mnr,17.14
2022-10-13T12:09:00,mnr,17.10
2022-10-13T12:10:00,mnr,17.37
2022-10-13T12:11:00,mnr,17.08
2022-10-13T12:12:00,mnr,17.70
2022-10-13T12:13:00,mnr,16.67
2022-10-13T12:14:00,mnr,17.38
2022-10-13T12:15:00,mnr,16.69
2022-10-13T12:16:00,mnr,16.78
2022-10-13T12:17:00,mnr,16.50
2022-10-13T12:18:00,mnr,16.62
2022-10-13T12:19:00,mnr,16.77
2022-10-13T12:20:00,mnr,13.54
2022-10-13T12:21:00,mnr,16.86
2022-10-13T12:22:00,mnr,17.57
2022-10-13T12:23:00,mnr,17.35
2022-10-13T12:24:00,mnr,17.19
2022-10-13T12:25:00,mnr,17.13
2022-10-13T12:26:00,mnr,16.64
2022-10-13T12:27:00,mnr,16.50
2022-10-13T12:28:00,mnr,16.45
2022-10-13T12:29:00,mnr,16.45
2022-10-13T12:30:00,mnr,16.35
2022-10-13T12:31:00,mnr,16.23
2022-10-13T12:32:00,mnr,16.12
2022-10-13T12:33:00,mnr,16.57
2022-10-13T12:34:00,mnr,17.06
2022-10-13T12:35:00,mnr,16.80
2022-10-13T12:36:00,mnr,16.07
2022-10-13T12:37:00,mnr,15.67
2022-10-13T12:38:00,mnr,15.94
2022-10-13T12:39:00,mnr,15.53
2022-10-13T12:40:00,mnr,15.74
2022-10-13T12:41:00,mnr,15.62
2022-10-13T12:42:00,mnr,15.60
2022-10-13T12:43:00,mnr,15.71
2022-10-13T12:44:00,mnr,15.80
2022-10-13T12:45:00,mnr,15.78
2022-10-13T12:46:00,mnr,16.77
2022-10-13T12:47:00,mnr,16.47
2022-10-13T12:48:00,mnr,15.85
2022-10-13T12:49:00,mnr,16.25
2022-10-13T12:50:00,mnr,17.60
2022-10-13T12:51:00,mnr,18.36
2022-10-13T12:52:00,mnr,18.04
2022-10-13T12:53:00,mnr,17.56
2022-10-13T12:54:00,mnr,18.02
2022-10-13T12:55:00,mnr,17.79
2022-10-13T12:56:00,mnr,17.60
2022-10-13T12:57:00,mnr,16.33
2022-10-13T12:58:00,mnr,16.52
2022-10-13T12:59:00,mnr,16.36
2022-10-13T13:00:00,mnr,17.11
2022-10-13T13:01:00,mnr,16.29
2022-10-13T13:02:00,mnr,16.56
2022-10-13T13:03:00,mnr,16.50
2022-10-13T13:04:00,mnr,17.55
2022-10-13T13:05:00,mnr,16.34
2022-10-13T13:06:00,mnr,16.52
2022-10-13T13:07:00,mnr,16.50
2022-10-13T13:08:00,mnr,16.47
2022-10-13T13:09:00,mnr,16.47
2022-10-13T13:10:00,mnr,17.35
2022-10-13T13:11:00,mnr,17.15
2022-10-13T13:12:00,mnr,16.43
2022-10-13T13:13:00,mnr,16.42
2022-10-13T13:14:00,mnr,16.43
2022-10-13T13:15:00,mnr,15.91
2022-10-13T13:16:00,mnr,15.98
2022-10-13T13:17:00,mnr,16.04
2022-10-13T13:18:00,mnr,15.95
2022-10-13T13:19:00,mnr,17.17
2022-10-13T13:20:00,mnr,16.12
2022-10-13T13:21:00,mnr,15.88
2022-10-13T13:22:00,mnr,15.93
2022-10-13T13:23:00,mnr,15.92
2022-10-13T13:24:00,mnr,16.36
2022-10-13T13:25:00,mnr,16.41
2022-10-13T13:26:00,mnr,16.65